Observations for Trim Market St
| Time | AQI | Temp °C | Hum % | Pres Pa | CO μg/m³ | H₂S μg/m³ | NO μg/m³ | NO₂ μg/m³ | O₃ μg/m³ | SO₂ μg/m³ | PM1 μg/m³ | PM2.5 μg/m³ | PM10 μg/m³ |
|---|---|---|---|---|---|---|---|---|---|---|---|---|---|
| Friday 10 July 2026 | |||||||||||||
| 23:34 | 1 | 20.2 | 66 | 56,961 | 0 | 0 | 0 | 7.8 | 4.76 | 0 | 0.71 | 2.25 | 3.63 |
| 23:32 | 1 | 20.3 | 66 | 56,997 | 0 | 0 | 0 | 4.59 | 10.26 | 0 | 1.43 | 3.25 | 5.58 |
| 23:29 | 1 | 20.3 | 66 | 57,029 | 0 | 0 | 0 | 7.3 | 15.24 | 0 | 0 | 1.78 | 2.97 |
| 23:27 | 1 | 20.4 | 66 | 57,069 | 0 | 0 | 0 | 3.1 | 8.9 | 0 | 0.71 | 2.28 | 3.61 |
| 23:26 | 1 | 20.4 | 66 | 57,084 | 0 | 0 | 0 | 10.51 | 27.53 | 0 | 0.71 | 2.77 | 4.26 |
| 23:22 | 1 | 20.4 | 65 | 57,151 | 0 | 0 | 0 | 11.15 | 18.63 | 0 | 0.71 | 2.79 | 4.25 |
| 23:15 | 1 | 20.7 | 65 | 57,224 | 0 | 0 | 0.16 | 7.51 | 10.94 | 0 | 0 | 2.31 | 3.58 |
| 23:14 | 1 | 20.7 | 65 | 57,226 | 0 | 0 | 0 | 7.31 | 12.7 | 0 | 0.71 | 2.31 | 4.24 |
| 23:13 | 1 | 20.7 | 65 | 57,238 | 0 | 0 | 0 | 5.91 | 8.89 | 0 | 0.71 | 1.82 | 4.24 |
| 23:12 | 1 | 20.7 | 65 | 57,250 | 0 | 0 | 0 | 9.72 | 21.62 | 0 | 0 | 1.82 | 2.92 |
| 23:11 | 1 | 20.8 | 65 | 57,264 | 0 | 0 | 0 | 7.29 | 11.03 | 0 | 0.71 | 2.81 | 4.24 |
| 23:10 | 1 | 20.8 | 65 | 57,279 | 0 | 0 | 0 | 1.69 | 2.43 | 0 | 0.71 | 2.81 | 4.24 |
| 23:09 | 1 | 20.9 | 64 | 57,304 | 0 | 0 | 0 | 11.59 | 27.09 | 0 | 0.71 | 2.82 | 4.23 |
| 23:08 | 1 | 20.9 | 64 | 57,328 | 0 | 0 | 0 | 5.4 | 11.49 | 0 | 0 | 1.84 | 2.91 |
| 23:07 | 1 | 20.9 | 64 | 57,352 | 0 | 0 | 0 | 10.91 | 28.37 | 0 | 0 | 1.84 | 2.9 |
| 23:06 | 1 | 20.9 | 64 | 57,366 | 0 | 0 | 0 | 5.31 | 14.31 | 0 | 0 | 2.33 | 3.57 |
| 23:05 | 1 | 21 | 64 | 57,376 | 0 | 0 | 0 | 9.6 | 20.51 | 0 | 1.43 | 3.33 | 4.88 |
| 23:04 | 1 | 21 | 64 | 57,389 | 0 | 0 | 2.94 | 7.51 | 1.05 | 0 | 0.71 | 2.34 | 3.56 |
| 23:03 | 1 | 21 | 64 | 57,407 | 0 | 0.04 | 0 | 8.42 | 13.57 | 0 | 0 | 2.35 | 3.55 |
| 23:02 | 1 | 21.1 | 64 | 57,426 | 0 | 0 | 0 | 9.4 | 25.34 | 0 | 0.71 | 2.35 | 3.55 |